Time,TemperatureF,DewpointF,PressureIn,WindDirection,WindDirectionDegrees,WindSpeedMPH,WindSpeedGustMPH,Humidity,HourlyPrecipIn,Conditions,Clouds,dailyrainin,SoftwareType,DateUTC
2013-11-06 00:00:00,61.6,55.4,30.13,East,91,0.0,0.0,80,0.00,,SCT200,0.00,VWS V13.01,2013-11-06 06:00:00,
2013-11-06 00:04:00,61.4,55.2,30.13,East,91,0.0,0.0,80,0.00,,CLR,0.00,VWS V13.01,2013-11-06 06:04:00,
2013-11-06 00:09:00,61.3,55.1,30.13,East,91,0.0,1.0,80,0.00,,CLR,0.00,VWS V13.01,2013-11-06 06:09:00,
2013-11-06 00:14:00,61.2,55.0,30.13,East,91,0.0,1.0,80,0.00,,CLR,0.00,VWS V13.01,2013-11-06 06:14:00,
2013-11-06 00:15:00,61.1,54.9,30.13,East,91,0.0,1.0,80,0.00,,SCT200,0.00,VWS V13.01,2013-11-06 06:15:00,
2013-11-06 00:19:00,61.0,54.8,30.13,East,91,0.0,0.0,80,0.00,,CLR,0.00,VWS V13.01,2013-11-06 06:19:00,
2013-11-06 00:25:00,60.9,54.7,30.13,East,91,0.0,0.0,80,0.00,,CLR,0.00,VWS V13.01,2013-11-06 06:25:00,
2013-11-06 00:30:00,60.8,54.9,30.13,East,91,0.0,0.0,81,0.00,,CLR,0.00,VWS V13.01,2013-11-06 06:30:00,
2013-11-06 00:35:00,60.7,54.8,30.13,East,91,0.0,0.0,81,0.00,,CLR,0.00,VWS V13.01,2013-11-06 06:35:00,
2013-11-06 00:40:00,60.6,54.8,30.13,East,90,0.0,1.0,81,0.00,,CLR,0.00,VWS V13.01,2013-11-06 06:40:00,
2013-11-06 00:45:00,60.5,54.7,30.13,East,90,0.0,1.0,81,0.00,,CLR,0.00,VWS V13.01,2013-11-06 06:45:00,
2013-11-06 00:50:00,60.4,54.5,30.14,East,90,0.0,0.0,81,0.00,,CLR,0.00,VWS V13.01,2013-11-06 06:50:00,
2013-11-06 00:55:00,60.2,54.4,30.13,East,90,0.0,0.0,81,0.00,,CLR,0.00,VWS V13.01,2013-11-06 06:55:00,
2013-11-06 01:00:00,60.1,54.6,30.13,East,90,0.0,0.0,82,0.00,,CLR,0.00,VWS V13.01,2013-11-06 07:00:00,
2013-11-06 01:05:00,60.0,54.5,30.13,East,90,0.0,0.0,82,0.00,,CLR,0.00,VWS V13.01,2013-11-06 07:05:00,
2013-11-06 01:11:00,59.8,54.3,30.12,East,90,0.0,0.0,82,0.00,,CLR,0.00,VWS V13.01,2013-11-06 07:11:00,
2013-11-06 01:15:00,59.7,54.2,30.12,East,90,0.0,0.0,82,0.00,,SCT200,0.00,VWS V13.01,2013-11-06 07:15:00,
2013-11-06 01:16:00,59.7,54.2,30.12,East,90,0.0,0.0,82,0.00,,CLR,0.00,VWS V13.01,2013-11-06 07:16:00,
2013-11-06 01:21:00,59.5,54.3,30.12,East,90,0.0,0.0,83,0.00,,CLR,0.00,VWS V13.01,2013-11-06 07:21:00,
2013-11-06 01:26:00,59.3,54.2,30.12,East,90,0.0,0.0,83,0.00,,CLR,0.00,VWS V13.01,2013-11-06 07:26:00,
2013-11-06 01:30:00,59.1,54.0,30.12,East,90,0.0,0.0,83,0.00,,SCT200,0.00,VWS V13.01,2013-11-06 07:30:00,
2013-11-06 01:31:00,59.2,54.0,30.12,East,90,0.0,0.0,83,0.00,,CLR,0.00,VWS V13.01,2013-11-06 07:31:00,
2013-11-06 01:36:00,59.0,53.8,30.12,East,90,0.0,0.0,83,0.00,,CLR,0.00,VWS V13.01,2013-11-06 07:36:00,
2013-11-06 01:41:00,59.0,53.8,30.11,East,90,0.0,0.0,83,0.00,,CLR,0.00,VWS V13.01,2013-11-06 07:41:00,
2013-11-06 01:45:00,59.0,53.8,30.11,East,90,0.0,0.0,83,0.00,,SCT200,0.00,VWS V13.01,2013-11-06 07:45:00,
2013-11-06 01:46:00,59.0,53.8,30.11,East,90,0.0,0.0,83,0.00,,CLR,0.00,VWS V13.01,2013-11-06 07:46:00,
2013-11-06 01:51:00,59.0,53.8,30.10,East,90,0.0,0.0,83,0.00,,CLR,0.00,VWS V13.01,2013-11-06 07:51:00,
2013-11-06 01:57:00,59.0,53.8,30.10,East,90,0.0,2.0,83,0.00,,CLR,0.00,VWS V13.01,2013-11-06 07:57:00,
2013-11-06 02:00:00,59.0,53.8,30.10,East,90,0.0,2.0,83,0.00,,SCT200,0.00,VWS V13.01,2013-11-06 08:00:00,
2013-11-06 02:02:00,59.0,53.8,30.11,East,90,0.0,0.0,83,0.00,,FEW070,0.00,VWS V13.01,2013-11-06 08:02:00,
2013-11-06 02:07:00,59.0,53.8,30.11,East,90,0.0,0.0,83,0.00,,FEW070,0.00,VWS V13.01,2013-11-06 08:07:00,
2013-11-06 02:12:00,59.0,53.8,30.11,East,90,0.0,2.0,83,0.00,,FEW070,0.00,VWS V13.01,2013-11-06 08:12:00,
2013-11-06 02:15:00,59.0,53.8,30.11,East,89,0.0,2.0,83,0.00,,SCT200,0.00,VWS V13.01,2013-11-06 08:15:00,
2013-11-06 02:17:00,59.0,53.8,30.11,East,88,0.0,0.0,83,0.00,,FEW070,0.00,VWS V13.01,2013-11-06 08:17:00,
2013-11-06 02:22:00,59.0,53.8,30.11,East,89,0.0,1.0,83,0.00,,FEW070,0.00,VWS V13.01,2013-11-06 08:22:00,
2013-11-06 02:27:00,59.0,53.8,30.11,East,88,0.0,1.0,83,0.00,,FEW070,0.00,VWS V13.01,2013-11-06 08:27:00,
2013-11-06 02:30:00,59.2,54.0,30.11,East,89,0.0,1.0,83,0.00,,SCT200,0.00,VWS V13.01,2013-11-06 08:30:00,
2013-11-06 02:32:00,59.3,54.2,30.11,East,89,0.0,1.0,83,0.00,,BKN020,0.00,VWS V13.01,2013-11-06 08:32:00,
2013-11-06 02:38:00,59.5,54.0,30.10,East,88,0.0,1.0,82,0.00,,BKN020,0.00,VWS V13.01,2013-11-06 08:38:00,
2013-11-06 02:43:00,59.6,54.1,30.10,East,88,0.0,1.0,82,0.00,,BKN020,0.00,VWS V13.01,2013-11-06 08:43:00,
2013-11-06 02:45:00,59.7,54.2,30.10,East,89,0.0,2.0,82,0.00,,SCT200,0.00,VWS V13.01,2013-11-06 08:45:00,
2013-11-06 02:48:00,59.7,54.2,30.10,East,88,0.0,1.0,82,0.00,,BKN020,0.00,VWS V13.01,2013-11-06 08:48:00,
2013-11-06 02:53:00,59.7,54.2,30.10,East,88,0.0,1.0,82,0.00,,BKN020,0.00,VWS V13.01,2013-11-06 08:53:00,
2013-11-06 02:58:00,59.7,54.2,30.10,East,88,0.0,2.0,82,0.00,,BKN020,0.00,VWS V13.01,2013-11-06 08:58:00,
2013-11-06 03:00:00,59.7,54.2,30.10,East,89,0.0,2.0,82,0.00,,SCT200,0.00,VWS V13.01,2013-11-06 09:00:00,
2013-11-06 03:03:00,59.7,54.2,30.10,East,89,0.0,0.0,82,0.00,,BKN070,0.00,VWS V13.01,2013-11-06 09:03:00,
2013-11-06 03:08:00,59.7,54.2,30.10,East,88,0.0,0.0,82,0.00,,BKN070,0.00,VWS V13.01,2013-11-06 09:08:00,
2013-11-06 03:13:00,59.7,53.9,30.10,East,88,0.0,2.0,81,0.00,,BKN070,0.00,VWS V13.01,2013-11-06 09:13:00,
2013-11-06 03:15:00,59.7,53.9,30.10,East,88,0.0,2.0,81,0.00,,SCT200,0.00,VWS V13.01,2013-11-06 09:15:00,
2013-11-06 03:18:00,59.7,53.9,30.10,East,88,0.0,1.0,81,0.00,,BKN070,0.00,VWS V13.01,2013-11-06 09:18:00,
2013-11-06 03:24:00,59.6,53.8,30.10,East,87,0.0,2.0,81,0.00,,BKN070,0.00,VWS V13.01,2013-11-06 09:24:00,
2013-11-06 03:29:00,59.5,53.7,30.10,East,87,0.0,2.0,81,0.00,,BKN070,0.00,VWS V13.01,2013-11-06 09:29:00,
2013-11-06 03:30:00,59.5,54.0,30.10,East,87,0.0,2.0,82,0.00,,SCT200,0.00,VWS V13.01,2013-11-06 09:30:00,
2013-11-06 03:34:00,59.4,53.9,30.10,East,87,0.0,3.0,82,0.00,,BKN070,0.00,VWS V13.01,2013-11-06 09:34:00,
2013-11-06 03:39:00,59.2,53.7,30.10,East,87,2.0,3.0,82,0.00,,BKN070,0.00,VWS V13.01,2013-11-06 09:39:00,
2013-11-06 03:44:00,59.0,53.5,30.10,East,87,0.0,3.0,82,0.00,,BKN070,0.00,VWS V13.01,2013-11-06 09:44:00,
2013-11-06 03:45:00,59.0,53.5,30.10,East,87,0.0,3.0,82,0.00,,SCT200,0.00,VWS V13.01,2013-11-06 09:45:00,
2013-11-06 03:49:00,59.0,53.8,30.10,East,87,0.0,1.0,83,0.00,,BKN070,0.00,VWS V13.01,2013-11-06 09:49:00,
2013-11-06 03:54:00,59.0,53.8,30.10,East,87,0.0,1.0,83,0.00,,BKN070,0.00,VWS V13.01,2013-11-06 09:54:00,
2013-11-06 03:59:00,59.1,54.0,30.10,East,86,0.0,1.0,83,0.00,,BKN070,0.00,VWS V13.01,2013-11-06 09:59:00,
2013-11-06 04:00:00,59.0,53.8,30.10,East,87,0.0,1.0,83,0.00,,SCT200,0.00,VWS V13.01,2013-11-06 10:00:00,
2013-11-06 04:04:00,59.1,54.0,30.10,East,87,0.0,1.0,83,0.00,,BKN018,0.00,VWS V13.01,2013-11-06 10:04:00,
2013-11-06 04:09:00,59.1,54.0,30.10,East,87,0.0,1.0,83,0.00,,BKN018,0.00,VWS V13.01,2013-11-06 10:09:00,
2013-11-06 04:14:00,59.1,54.0,30.10,East,87,0.0,1.0,83,0.00,,BKN018,0.00,VWS V13.01,2013-11-06 10:14:00,
2013-11-06 04:15:00,59.1,54.0,30.09,East,87,0.0,1.0,83,0.00,,SCT200,0.00,VWS V13.01,2013-11-06 10:15:00,
2013-11-06 04:19:00,59.1,54.0,30.09,East,86,0.0,0.0,83,0.00,,BKN018,0.00,VWS V13.01,2013-11-06 10:19:00,
2013-11-06 04:25:00,59.0,54.2,30.10,East,87,0.0,1.0,84,0.00,,BKN018,0.00,VWS V13.01,2013-11-06 10:25:00,
2013-11-06 04:30:00,59.0,54.2,30.10,East,87,0.0,1.0,84,0.00,,BKN018,0.00,VWS V13.01,2013-11-06 10:30:00,
2013-11-06 04:35:00,59.0,54.2,30.10,East,87,0.0,0.0,84,0.00,,BKN018,0.00,VWS V13.01,2013-11-06 10:35:00,
2013-11-06 04:40:00,59.0,54.2,30.10,East,86,0.0,0.0,84,0.00,,BKN018,0.00,VWS V13.01,2013-11-06 10:40:00,
2013-11-06 04:45:00,59.0,54.5,30.10,East,87,0.0,0.0,85,0.00,,BKN018,0.00,VWS V13.01,2013-11-06 10:45:00,
2013-11-06 04:50:00,59.0,54.5,30.10,East,86,0.0,0.0,85,0.00,,BKN018,0.00,VWS V13.01,2013-11-06 10:50:00,
2013-11-06 04:55:00,59.0,54.5,30.10,East,87,0.0,0.0,85,0.00,,BKN018,0.00,VWS V13.01,2013-11-06 10:55:00,
2013-11-06 05:00:00,59.1,54.6,30.10,East,87,0.0,1.0,85,0.00,,OVC070,0.00,VWS V13.01,2013-11-06 11:00:00,
2013-11-06 05:05:00,59.1,54.6,30.10,East,87,0.0,0.0,85,0.00,,OVC070,0.00,VWS V13.01,2013-11-06 11:05:00,
2013-11-06 05:11:00,59.2,54.7,30.10,East,87,0.0,0.0,85,0.00,,OVC070,0.00,VWS V13.01,2013-11-06 11:11:00,
2013-11-06 05:15:00,59.3,54.8,30.10,East,87,0.0,0.0,85,0.00,,SCT200,0.00,VWS V13.01,2013-11-06 11:15:00,
2013-11-06 05:16:00,59.3,54.8,30.10,East,87,0.0,0.0,85,0.00,,OVC070,0.00,VWS V13.01,2013-11-06 11:16:00,
2013-11-06 05:21:00,59.3,54.8,30.10,East,87,0.0,0.0,85,0.00,,OVC070,0.00,VWS V13.01,2013-11-06 11:21:00,
2013-11-06 05:26:00,59.4,54.9,30.10,East,86,0.0,0.0,85,0.00,,OVC070,0.00,VWS V13.01,2013-11-06 11:26:00,
2013-11-06 05:30:00,59.3,54.8,30.10,East,86,0.0,2.0,85,0.00,,SCT200,0.00,VWS V13.01,2013-11-06 11:30:00,
2013-11-06 05:31:00,59.3,54.8,30.10,East,86,0.0,2.0,85,0.00,,OVC014,0.00,VWS V13.01,2013-11-06 11:31:00,
2013-11-06 05:36:00,59.3,55.1,30.10,East,86,0.0,1.0,86,0.00,,OVC014,0.00,VWS V13.01,2013-11-06 11:36:00,
2013-11-06 05:41:00,59.3,55.1,30.10,East,86,0.0,1.0,86,0.00,,OVC014,0.00,VWS V13.01,2013-11-06 11:41:00,
2013-11-06 05:45:00,59.2,55.0,30.10,East,86,0.0,1.0,86,0.00,,SCT200,0.00,VWS V13.01,2013-11-06 11:45:00,
2013-11-06 05:46:00,59.3,55.1,30.10,East,86,0.0,0.0,86,0.00,,OVC014,0.00,VWS V13.01,2013-11-06 11:46:00,
2013-11-06 05:51:00,59.2,55.0,30.10,East,86,0.0,1.0,86,0.00,,OVC014,0.00,VWS V13.01,2013-11-06 11:51:00,
2013-11-06 05:56:00,59.2,55.0,30.10,East,86,0.0,1.0,86,0.00,,OVC014,0.00,VWS V13.01,2013-11-06 11:56:00,
2013-11-06 06:00:00,59.2,55.0,30.10,East,86,0.0,1.0,86,0.00,,SCT200,0.00,VWS V13.01,2013-11-06 12:00:00,
2013-11-06 06:02:00,59.1,54.9,30.10,East,86,0.0,0.0,86,0.00,,BKN070,0.00,VWS V13.01,2013-11-06 12:02:00,
2013-11-06 06:07:00,59.2,55.0,30.11,East,84,3.0,3.0,86,0.00,,BKN070,0.00,VWS V13.01,2013-11-06 12:07:00,
2013-11-06 06:12:00,59.3,55.1,30.11,East,84,0.0,3.0,86,0.00,,BKN070,0.00,VWS V13.01,2013-11-06 12:12:00,
2013-11-06 06:15:00,59.3,55.1,30.11,East,83,0.0,3.0,86,0.00,,SCT200,0.00,VWS V13.01,2013-11-06 12:15:00,
2013-11-06 06:17:00,59.3,55.1,30.11,East,83,0.0,0.0,86,0.00,,BKN070,0.00,VWS V13.01,2013-11-06 12:17:00,
2013-11-06 06:22:00,59.3,55.1,30.11,East,83,0.0,0.0,86,0.00,,BKN070,0.00,VWS V13.01,2013-11-06 12:22:00,
2013-11-06 06:27:00,59.3,55.4,30.11,East,83,0.0,1.0,87,0.00,,BKN070,0.00,VWS V13.01,2013-11-06 12:27:00,
2013-11-06 06:30:00,59.3,55.4,30.11,East,84,0.0,1.0,87,0.00,,SCT200,0.00,VWS V13.01,2013-11-06 12:30:00,
2013-11-06 06:32:00,59.3,55.4,30.11,East,83,0.0,0.0,87,0.00,,BKN070,0.00,VWS V13.01,2013-11-06 12:32:00,
2013-11-06 06:37:00,59.3,55.4,30.11,East,83,0.0,1.0,87,0.00,,BKN070,0.00,VWS V13.01,2013-11-06 12:37:00,
2013-11-06 06:42:00,59.3,55.4,30.11,East,84,0.0,1.0,87,0.00,,BKN070,0.00,VWS V13.01,2013-11-06 12:42:00,
2013-11-06 06:45:00,59.4,55.5,30.11,East,84,0.0,2.0,87,0.00,,SCT200,0.00,VWS V13.01,2013-11-06 12:45:00,
2013-11-06 06:47:00,59.4,55.5,30.11,East,84,0.0,0.0,87,0.00,,BKN070,0.00,VWS V13.01,2013-11-06 12:47:00,
2013-11-06 06:53:00,59.5,55.6,30.11,East,84,0.0,0.0,87,0.00,,BKN070,0.00,VWS V13.01,2013-11-06 12:53:00,
2013-11-06 06:58:00,59.5,55.6,30.11,SSW,200,0.0,3.0,87,0.00,,BKN070,0.00,VWS V13.01,2013-11-06 12:58:00,
2013-11-06 07:00:00,59.6,55.7,30.11,SSE,153,0.0,3.0,87,0.00,,SCT200,0.00,VWS V13.01,2013-11-06 13:00:00,
2013-11-06 07:03:00,59.7,56.2,30.11,SSE,152,0.0,0.0,88,0.00,,SCT200,0.00,VWS V13.01,2013-11-06 13:03:00,
2013-11-06 07:08:00,59.9,56.3,30.11,SSE,152,0.0,0.0,88,0.00,,SCT200,0.00,VWS V13.01,2013-11-06 13:08:00,
2013-11-06 07:13:00,60.2,56.3,30.11,SSE,159,0.0,3.0,87,0.00,,SCT200,0.00,VWS V13.01,2013-11-06 13:13:00,
2013-11-06 07:15:00,60.3,56.4,30.11,SSE,157,0.0,3.0,87,0.00,,SCT200,0.00,VWS V13.01,2013-11-06 13:15:00,
2013-11-06 07:18:00,60.4,56.5,30.11,SSE,158,0.0,0.0,87,0.00,,SCT200,0.00,VWS V13.01,2013-11-06 13:18:00,
2013-11-06 07:23:00,60.7,56.8,30.12,ESE,113,0.0,3.0,87,0.00,,SCT200,0.00,VWS V13.01,2013-11-06 13:23:00,
2013-11-06 07:28:00,61.0,57.1,30.12,ESE,115,0.0,3.0,87,0.00,,SCT200,0.00,VWS V13.01,2013-11-06 13:28:00,
2013-11-06 07:30:00,61.1,57.2,30.12,ESE,115,0.0,3.0,87,0.00,,SCT200,0.00,VWS V13.01,2013-11-06 13:30:00,
2013-11-06 07:33:00,61.2,57.3,30.12,ESE,115,0.0,0.0,87,0.00,,BKN070,0.00,VWS V13.01,2013-11-06 13:33:00,
2013-11-06 07:38:00,61.5,57.6,30.12,ESE,115,0.0,1.0,87,0.00,,BKN070,0.00,VWS V13.01,2013-11-06 13:38:00,
2013-11-06 07:44:00,61.7,57.5,30.12,ESE,115,0.0,1.0,86,0.00,,BKN070,0.00,VWS V13.01,2013-11-06 13:44:00,
2013-11-06 07:45:00,61.8,57.6,30.12,ESE,115,0.0,1.0,86,0.00,,SCT200,0.00,VWS V13.01,2013-11-06 13:45:00,
2013-11-06 07:49:00,62.0,58.1,30.12,ESE,109,0.0,2.0,87,0.00,,BKN070,0.00,VWS V13.01,2013-11-06 13:49:00,
2013-11-06 07:54:00,62.3,58.4,30.12,ESE,109,0.0,2.0,87,0.00,,BKN070,0.00,VWS V13.01,2013-11-06 13:54:00,
2013-11-06 07:59:00,62.7,58.5,30.12,ESE,109,0.0,2.0,86,0.00,,BKN070,0.00,VWS V13.01,2013-11-06 13:59:00,
2013-11-06 08:00:00,62.8,58.6,30.12,East,101,1.0,4.0,86,0.00,,SCT200,0.00,VWS V13.01,2013-11-06 14:00:00,
2013-11-06 08:04:00,63.0,58.8,30.12,East,101,0.0,0.0,86,0.00,,OVC010,0.00,VWS V13.01,2013-11-06 14:04:00,
2013-11-06 08:09:00,63.4,59.2,30.13,East,101,0.0,0.0,86,0.00,,OVC010,0.00,VWS V13.01,2013-11-06 14:09:00,
2013-11-06 08:14:00,63.7,59.4,30.13,South,171,0.0,5.0,86,0.00,,OVC010,0.00,VWS V13.01,2013-11-06 14:14:00,
2013-11-06 08:15:00,63.8,59.5,30.13,South,171,0.0,5.0,86,0.00,,SCT200,0.00,VWS V13.01,2013-11-06 14:15:00,
2013-11-06 08:19:00,64.0,59.7,30.13,SSE,168,0.0,1.0,86,0.00,,OVC010,0.00,VWS V13.01,2013-11-06 14:19:00,
2013-11-06 08:24:00,64.2,59.9,30.13,South,169,0.0,1.0,86,0.00,,OVC010,0.00,VWS V13.01,2013-11-06 14:24:00,
2013-11-06 08:30:00,64.5,60.2,30.13,East,95,1.0,4.0,86,0.00,,OVC010,0.00,VWS V13.01,2013-11-06 14:30:00,
2013-11-06 08:35:00,64.7,60.4,30.13,ESE,102,0.0,0.0,86,0.00,,OVC010,0.00,VWS V13.01,2013-11-06 14:35:00,
2013-11-06 08:40:00,65.1,60.8,30.13,East,100,0.0,2.0,86,0.00,,OVC010,0.00,VWS V13.01,2013-11-06 14:40:00,
2013-11-06 08:45:00,65.6,61.3,30.13,ESE,105,3.0,3.0,86,0.00,,OVC010,0.00,VWS V13.01,2013-11-06 14:45:00,
2013-11-06 08:50:00,66.4,61.4,30.13,SSE,166,0.0,3.0,84,0.00,,OVC010,0.00,VWS V13.01,2013-11-06 14:50:00,
2013-11-06 08:55:00,67.0,61.7,30.12,North,355,2.0,3.0,83,0.00,,OVC010,0.00,VWS V13.01,2013-11-06 14:55:00,
2013-11-06 09:00:00,67.7,62.0,30.13,East,92,0.0,3.0,82,0.00,,OVC010,0.00,VWS V13.01,2013-11-06 15:00:00,
2013-11-06 09:05:00,68.3,62.2,30.13,SSE,168,2.0,4.0,81,0.00,,OVC010,0.00,VWS V13.01,2013-11-06 15:05:00,
2013-11-06 09:11:00,68.5,62.1,30.13,SSE,159,1.0,6.0,80,0.00,,OVC010,0.00,VWS V13.01,2013-11-06 15:11:00,
2013-11-06 09:15:00,68.5,62.5,30.13,SSE,159,0.0,6.0,81,0.00,,SCT200,0.00,VWS V13.01,2013-11-06 15:15:00,
2013-11-06 09:16:00,68.5,62.5,30.13,SSE,159,0.0,6.0,81,0.00,,OVC010,0.00,VWS V13.01,2013-11-06 15:16:00,
2013-11-06 09:21:00,68.4,62.7,30.13,SSE,154,0.0,7.0,82,0.00,,OVC010,0.00,VWS V13.01,2013-11-06 15:21:00,
2013-11-06 09:26:00,68.7,63.0,30.14,SSE,153,1.0,7.0,82,0.00,,OVC010,0.00,VWS V13.01,2013-11-06 15:26:00,
2013-11-06 09:30:00,69.1,63.4,30.14,SE,144,0.0,7.0,82,0.00,,SCT200,0.00,VWS V13.01,2013-11-06 15:30:00,
2013-11-06 09:31:00,69.1,63.4,30.14,SE,144,0.0,7.0,82,0.00,,OVC010,0.00,VWS V13.01,2013-11-06 15:31:00,
2013-11-06 09:36:00,69.6,63.5,30.13,SE,146,0.0,1.0,81,0.00,,OVC010,0.00,VWS V13.01,2013-11-06 15:36:00,
2013-11-06 09:41:00,70.2,64.4,30.13,SE,146,0.0,1.0,82,0.00,,OVC010,0.00,VWS V13.01,2013-11-06 15:41:00,
2013-11-06 09:45:00,71.0,64.9,30.13,SE,146,0.0,1.0,81,0.00,,SCT200,0.00,VWS V13.01,2013-11-06 15:45:00,
2013-11-06 09:46:00,71.1,65.0,30.14,SE,146,0.0,1.0,81,0.00,,OVC010,0.00,VWS V13.01,2013-11-06 15:46:00,
2013-11-06 09:51:00,71.9,65.4,30.12,SSE,154,0.0,5.0,80,0.00,,OVC010,0.00,VWS V13.01,2013-11-06 15:51:00,
2013-11-06 09:57:00,72.8,65.9,30.12,SSE,148,7.0,7.0,79,0.00,,OVC010,0.00,VWS V13.01,2013-11-06 15:57:00,
2013-11-06 10:00:00,73.1,65.8,30.12,SSE,159,2.0,7.0,78,0.00,,SCT200,0.00,VWS V13.01,2013-11-06 16:00:00,
2013-11-06 10:02:00,73.1,65.8,30.12,SSE,159,0.0,3.0,78,0.00,,BKN080,0.00,VWS V13.01,2013-11-06 16:02:00,
2013-11-06 10:07:00,73.4,66.1,30.12,SSE,161,0.0,4.0,78,0.00,,BKN080,0.00,VWS V13.01,2013-11-06 16:07:00,
2013-11-06 10:12:00,73.5,66.2,30.12,SSE,165,0.0,4.0,78,0.00,,BKN080,0.00,VWS V13.01,2013-11-06 16:12:00,
2013-11-06 10:15:00,73.5,66.2,30.12,SSE,161,0.0,4.0,78,0.00,,SCT200,0.00,VWS V13.01,2013-11-06 16:15:00,
2013-11-06 10:17:00,73.5,66.2,30.12,SSE,164,0.0,1.0,78,0.00,,BKN080,0.00,VWS V13.01,2013-11-06 16:17:00,
2013-11-06 10:22:00,73.6,66.7,30.12,SSE,156,2.0,4.0,79,0.00,,BKN080,0.00,VWS V13.01,2013-11-06 16:22:00,
2013-11-06 10:27:00,74.0,66.7,30.12,SSE,155,1.0,5.0,78,0.00,,BKN080,0.00,VWS V13.01,2013-11-06 16:27:00,
2013-11-06 10:30:00,74.3,66.6,30.12,ESE,117,0.0,5.0,77,0.00,,SCT200,0.00,VWS V13.01,2013-11-06 16:30:00,
2013-11-06 10:32:00,74.5,67.2,30.12,SE,133,1.0,4.0,78,0.00,,BKN065,0.00,VWS V13.01,2013-11-06 16:32:00,
2013-11-06 10:37:00,74.9,66.8,30.12,SSE,159,0.0,6.0,76,0.00,,BKN065,0.00,VWS V13.01,2013-11-06 16:37:00,
2013-11-06 10:42:00,75.0,67.3,30.11,SSE,151,0.0,6.0,77,0.00,,BKN065,0.00,VWS V13.01,2013-11-06 16:42:00,
2013-11-06 10:45:00,75.1,67.4,30.11,ENE,78,3.0,6.0,77,0.00,,SCT200,0.00,VWS V13.01,2013-11-06 16:45:00,
2013-11-06 10:47:00,75.1,67.4,30.11,SSE,151,0.0,3.0,77,0.00,,BKN065,0.00,VWS V13.01,2013-11-06 16:47:00,
2013-11-06 10:53:00,75.4,67.7,30.11,SSE,151,0.0,3.0,77,0.00,,BKN065,0.00,VWS V13.01,2013-11-06 16:53:00,
2013-11-06 10:58:00,75.7,68.0,30.11,SE,128,1.0,5.0,77,0.00,,BKN065,0.00,VWS V13.01,2013-11-06 16:58:00,
2013-11-06 11:00:00,75.7,67.6,30.11,SSE,157,2.0,7.0,76,0.00,,SCT200,0.00,VWS V13.01,2013-11-06 17:00:00,
2013-11-06 11:03:00,75.7,67.2,30.11,SSE,153,0.0,4.0,75,0.00,,BKN065,0.00,VWS V13.01,2013-11-06 17:03:00,
2013-11-06 11:08:00,75.8,67.7,30.11,SSE,153,1.0,4.0,76,0.00,,BKN065,0.00,VWS V13.01,2013-11-06 17:08:00,
2013-11-06 11:13:00,76.0,67.9,30.11,South,183,0.0,4.0,76,0.00,,BKN065,0.00,VWS V13.01,2013-11-06 17:13:00,
2013-11-06 11:15:00,76.2,68.1,30.10,SSE,159,2.0,4.0,76,0.00,,SCT200,0.00,VWS V13.01,2013-11-06 17:15:00,
2013-11-06 11:18:00,76.3,68.2,30.10,SSE,159,0.0,2.0,76,0.00,,BKN065,0.00,VWS V13.01,2013-11-06 17:18:00,
2013-11-06 11:23:00,76.7,68.6,30.10,SSE,159,0.0,2.0,76,0.00,,BKN065,0.00,VWS V13.01,2013-11-06 17:23:00,
2013-11-06 11:28:00,76.9,68.4,30.10,SSE,157,0.0,3.0,75,0.00,,BKN065,0.00,VWS V13.01,2013-11-06 17:28:00,
2013-11-06 11:30:00,76.8,68.3,30.10,SSE,157,1.0,3.0,75,0.00,,SCT200,0.00,VWS V13.01,2013-11-06 17:30:00,
2013-11-06 11:33:00,76.7,68.2,30.10,SSE,157,0.0,1.0,75,0.00,,BKN065,0.00,VWS V13.01,2013-11-06 17:33:00,
2013-11-06 11:38:00,76.5,68.4,30.10,SSE,155,0.0,3.0,76,0.00,,BKN065,0.00,VWS V13.01,2013-11-06 17:38:00,
2013-11-06 11:43:00,76.1,68.4,30.10,SE,145,0.0,5.0,77,0.00,,BKN065,0.00,VWS V13.01,2013-11-06 17:43:00,
2013-11-06 11:45:00,75.8,68.1,30.10,SSE,155,0.0,5.0,77,0.00,,SCT200,0.00,VWS V13.01,2013-11-06 17:45:00,
2013-11-06 11:48:00,75.6,68.3,30.10,SSE,155,0.0,5.0,78,0.00,,BKN065,0.00,VWS V13.01,2013-11-06 17:48:00,
2013-11-06 11:54:00,75.3,68.3,30.10,SSE,147,3.0,5.0,79,0.00,,BKN065,0.00,VWS V13.01,2013-11-06 17:54:00,
2013-11-06 11:59:00,74.9,67.9,30.09,SSE,153,0.0,6.0,79,0.00,,BKN065,0.00,VWS V13.01,2013-11-06 17:59:00,
2013-11-06 12:00:00,74.7,68.1,30.10,SSE,153,0.0,6.0,80,0.00,,SCT200,0.00,VWS V13.01,2013-11-06 18:00:00,
2013-11-06 12:04:00,74.7,68.1,30.09,SSE,153,0.0,1.0,80,0.00,,OVC019,0.00,VWS V13.01,2013-11-06 18:04:00,
2013-11-06 12:09:00,74.8,68.2,30.09,SSE,156,0.0,5.0,80,0.00,,OVC019,0.00,VWS V13.01,2013-11-06 18:09:00,
2013-11-06 12:14:00,75.0,68.4,30.08,SSE,150,0.0,7.0,80,0.00,,OVC019,0.00,VWS V13.01,2013-11-06 18:14:00,
2013-11-06 12:15:00,75.4,68.8,30.06,SSE,150,0.0,7.0,80,0.00,,FEW040,0.00,VWS V13.01,2013-11-06 18:15:00,
2013-11-06 12:19:00,75.1,68.5,30.08,SSE,150,3.0,4.0,80,0.00,,OVC019,0.00,VWS V13.01,2013-11-06 18:19:00,
2013-11-06 12:24:00,75.1,68.5,30.08,SSE,154,0.0,4.0,80,0.00,,OVC019,0.00,VWS V13.01,2013-11-06 18:24:00,
2013-11-06 12:29:00,75.2,68.6,30.08,SSE,152,0.0,7.0,80,0.00,,OVC019,0.00,VWS V13.01,2013-11-06 18:29:00,
2013-11-06 12:30:00,75.2,68.2,30.08,SSE,151,1.0,7.0,79,0.00,,SCT200,0.00,VWS V13.01,2013-11-06 18:30:00,
2013-11-06 12:34:00,75.2,68.6,30.08,SSE,148,0.0,4.0,80,0.00,,OVC019,0.00,VWS V13.01,2013-11-06 18:34:00,
2013-11-06 12:39:00,75.2,68.6,30.08,SE,144,0.0,7.0,80,0.00,,OVC019,0.00,VWS V13.01,2013-11-06 18:39:00,
2013-11-06 12:44:00,75.1,68.5,30.07,SSE,157,0.0,7.0,80,0.00,,OVC019,0.00,VWS V13.01,2013-11-06 18:44:00,
2013-11-06 12:45:00,75.0,68.4,30.07,SSE,164,0.0,7.0,80,0.00,,SCT200,0.00,VWS V13.01,2013-11-06 18:45:00,
2013-11-06 12:49:00,74.9,68.7,30.07,SSE,164,0.0,0.0,81,0.00,,OVC019,0.00,VWS V13.01,2013-11-06 18:49:00,
2013-11-06 12:54:00,75.0,68.8,30.07,SSE,164,0.0,0.0,81,0.00,,OVC019,0.00,VWS V13.01,2013-11-06 18:54:00,
2013-11-06 12:59:00,75.1,68.9,30.07,SSE,161,2.0,5.0,81,0.00,,OVC019,0.00,VWS V13.01,2013-11-06 18:59:00,
2013-11-06 13:00:00,75.1,68.5,30.06,SSE,161,1.0,5.0,80,0.00,,SCT200,0.00,VWS V13.01,2013-11-06 19:00:00,
2013-11-06 13:04:00,75.2,68.6,30.07,SSE,152,0.0,5.0,80,0.00,,OVC023,0.00,VWS V13.01,2013-11-06 19:04:00,
2013-11-06 13:09:00,75.3,68.7,30.06,SSE,155,0.0,6.0,80,0.00,,OVC023,0.00,VWS V13.01,2013-11-06 19:09:00,
2013-11-06 13:14:00,75.4,68.8,30.06,SSE,150,2.0,7.0,80,0.00,,OVC023,0.00,VWS V13.01,2013-11-06 19:14:00,
2013-11-06 13:15:00,75.4,68.8,30.06,SSE,150,0.0,7.0,80,0.00,,SCT200,0.00,VWS V13.01,2013-11-06 19:15:00,
2013-11-06 13:19:00,75.4,68.8,30.06,SSE,150,0.0,0.0,80,0.00,,OVC023,0.00,VWS V13.01,2013-11-06 19:19:00,
2013-11-06 13:24:00,75.6,69.0,30.06,SSE,148,0.0,6.0,80,0.00,,OVC023,0.00,VWS V13.01,2013-11-06 19:24:00,
2013-11-06 13:29:00,75.6,69.0,30.06,SE,141,0.0,7.0,80,0.00,,OVC023,0.00,VWS V13.01,2013-11-06 19:29:00,
2013-11-06 13:30:00,75.7,69.1,30.06,SE,142,0.0,7.0,80,0.00,,SCT200,0.00,VWS V13.01,2013-11-06 19:30:00,
2013-11-06 13:34:00,75.7,69.1,30.06,SE,141,0.0,0.0,80,0.00,,OVC023,0.00,VWS V13.01,2013-11-06 19:34:00,
2013-11-06 13:39:00,75.7,69.1,30.06,SE,142,0.0,0.0,80,0.00,,OVC023,0.00,VWS V13.01,2013-11-06 19:39:00,
2013-11-06 13:44:00,75.7,69.1,30.06,SE,140,0.0,4.0,80,0.00,,OVC023,0.00,VWS V13.01,2013-11-06 19:44:00,
2013-11-06 13:45:00,75.6,69.0,30.06,SSE,164,2.0,4.0,80,0.00,,SCT200,0.00,VWS V13.01,2013-11-06 19:45:00,
2013-11-06 13:49:00,75.5,68.9,30.06,SSE,151,0.0,6.0,80,0.00,,OVC023,0.00,VWS V13.01,2013-11-06 19:49:00,
2013-11-06 13:54:00,75.3,68.7,30.06,SSE,152,0.0,6.0,80,0.00,,OVC023,0.00,VWS V13.01,2013-11-06 19:54:00,
2013-11-06 13:59:00,75.2,69.0,30.06,SSE,149,3.0,7.0,81,0.00,,OVC023,0.00,VWS V13.01,2013-11-06 19:59:00,
2013-11-06 14:00:00,75.2,69.0,30.06,SSE,149,0.0,7.0,81,0.00,,SCT200,0.00,VWS V13.01,2013-11-06 20:00:00,
2013-11-06 14:04:00,75.1,68.9,30.06,SSE,149,0.0,1.0,81,0.00,,OVC021,0.00,VWS V13.01,2013-11-06 20:04:00,
2013-11-06 14:09:00,75.0,68.8,30.06,SSE,150,0.0,6.0,81,0.00,,OVC021,0.00,VWS V13.01,2013-11-06 20:09:00,
2013-11-06 14:14:00,74.9,68.7,30.06,SSE,157,0.0,6.0,81,0.00,,OVC021,0.00,VWS V13.01,2013-11-06 20:14:00,
2013-11-06 14:15:00,74.8,68.6,30.06,SSE,157,2.0,6.0,81,0.00,,SCT200,0.00,VWS V13.01,2013-11-06 20:15:00,
2013-11-06 14:19:00,74.8,68.9,30.06,SSE,157,0.0,3.0,82,0.00,,OVC021,0.00,VWS V13.01,2013-11-06 20:19:00,
2013-11-06 14:24:00,74.6,68.8,30.06,SSE,157,0.0,3.0,82,0.00,,OVC021,0.00,VWS V13.01,2013-11-06 20:24:00,
2013-11-06 14:29:00,74.5,68.7,30.05,SSE,157,0.0,6.0,82,0.00,,OVC021,0.00,VWS V13.01,2013-11-06 20:29:00,
2013-11-06 14:30:00,74.5,68.7,30.05,SSE,157,0.0,6.0,82,0.00,,SCT200,0.00,VWS V13.01,2013-11-06 20:30:00,
2013-11-06 14:34:00,74.5,68.7,30.06,SSE,156,0.0,4.0,82,0.00,,OVC021,0.00,VWS V13.01,2013-11-06 20:34:00,
2013-11-06 14:39:00,74.5,68.7,30.06,SSE,156,0.0,4.0,82,0.00,,OVC021,0.00,VWS V13.01,2013-11-06 20:39:00,
2013-11-06 14:44:00,74.4,68.6,30.06,SSE,160,0.0,5.0,82,0.00,,OVC021,0.00,VWS V13.01,2013-11-06 20:44:00,
2013-11-06 14:45:00,74.3,68.5,30.06,SSE,159,0.0,5.0,82,0.00,,SCT200,0.00,VWS V13.01,2013-11-06 20:45:00,
2013-11-06 14:49:00,74.2,68.4,30.06,SSE,159,0.0,6.0,82,0.00,,OVC021,0.00,VWS V13.01,2013-11-06 20:49:00,
2013-11-06 14:54:00,74.2,68.4,30.05,SSE,161,0.0,6.0,82,0.00,,OVC021,0.00,VWS V13.01,2013-11-06 20:54:00,
2013-11-06 14:59:00,74.2,68.4,30.05,SSE,161,0.0,6.0,82,0.00,,OVC021,0.00,VWS V13.01,2013-11-06 20:59:00,
2013-11-06 15:00:00,74.2,68.7,30.05,SSE,161,0.0,6.0,83,0.00,,SCT200,0.00,VWS V13.01,2013-11-06 21:00:00,
2013-11-06 15:04:00,74.1,68.6,30.05,SSE,161,0.0,2.0,83,0.00,,BKN019,0.00,VWS V13.01,2013-11-06 21:04:00,
2013-11-06 15:09:00,74.1,68.6,30.05,SSE,159,0.0,4.0,83,0.00,,BKN019,0.00,VWS V13.01,2013-11-06 21:09:00,
2013-11-06 15:14:00,74.2,68.7,30.05,SSE,158,0.0,4.0,83,0.00,,BKN019,0.00,VWS V13.01,2013-11-06 21:14:00,
2013-11-06 15:15:00,74.2,68.7,30.05,SSE,158,0.0,4.0,83,0.00,,SCT200,0.00,VWS V13.01,2013-11-06 21:15:00,
2013-11-06 15:19:00,74.2,68.7,30.05,SSE,158,2.0,2.0,83,0.00,,BKN019,0.00,VWS V13.01,2013-11-06 21:19:00,
2013-11-06 15:24:00,74.2,68.7,30.05,SSE,157,0.0,3.0,83,0.00,,BKN019,0.00,VWS V13.01,2013-11-06 21:24:00,
2013-11-06 15:29:00,74.2,68.7,30.05,SSE,157,0.0,3.0,83,0.00,,BKN019,0.00,VWS V13.01,2013-11-06 21:29:00,
2013-11-06 15:30:00,74.3,68.8,30.05,SSE,157,0.0,3.0,83,0.00,,SCT200,0.00,VWS V13.01,2013-11-06 21:30:00,
2013-11-06 15:34:00,74.3,68.8,30.05,SSE,158,0.0,3.0,83,0.00,,BKN019,0.00,VWS V13.01,2013-11-06 21:34:00,
2013-11-06 15:39:00,74.2,68.7,30.05,SSE,155,0.0,4.0,83,0.00,,BKN019,0.00,VWS V13.01,2013-11-06 21:39:00,
2013-11-06 15:44:00,74.1,68.6,30.06,SSE,155,0.0,4.0,83,0.00,,BKN019,0.00,VWS V13.01,2013-11-06 21:44:00,
2013-11-06 15:45:00,74.0,68.5,30.05,SSE,155,0.0,4.0,83,0.00,,SCT200,0.00,VWS V13.01,2013-11-06 21:45:00,
2013-11-06 15:49:00,74.0,68.5,30.05,SSE,155,0.0,1.0,83,0.00,,BKN019,0.00,VWS V13.01,2013-11-06 21:49:00,
2013-11-06 15:54:00,73.9,68.4,30.06,SSE,155,0.0,1.0,83,0.00,,BKN019,0.00,VWS V13.01,2013-11-06 21:54:00,
2013-11-06 15:59:00,73.7,68.2,30.06,SSE,155,3.0,4.0,83,0.00,,BKN019,0.00,VWS V13.01,2013-11-06 21:59:00,
2013-11-06 16:00:00,73.6,68.1,30.06,SSE,154,5.0,5.0,83,0.00,,SCT200,0.00,VWS V13.01,2013-11-06 22:00:00,
2013-11-06 16:04:00,73.5,68.4,30.06,SSE,153,0.0,5.0,84,0.00,,OVC019,0.00,VWS V13.01,2013-11-06 22:04:00,
2013-11-06 16:09:00,73.4,68.3,30.06,SSE,153,0.0,5.0,84,0.00,,OVC019,0.00,VWS V13.01,2013-11-06 22:09:00,
2013-11-06 16:14:00,73.3,68.2,30.06,SSE,153,0.0,5.0,84,0.00,,OVC019,0.00,VWS V13.01,2013-11-06 22:14:00,
2013-11-06 16:15:00,73.3,68.2,30.06,SSE,153,0.0,5.0,84,0.00,,SCT200,0.00,VWS V13.01,2013-11-06 22:15:00,
2013-11-06 16:19:00,73.3,68.2,30.05,SSE,153,0.0,0.0,84,0.00,,OVC019,0.00,VWS V13.01,2013-11-06 22:19:00,
2013-11-06 16:24:00,73.2,68.1,30.06,SSE,153,0.0,0.0,84,0.00,,OVC019,0.00,VWS V13.01,2013-11-06 22:24:00,
2013-11-06 16:29:00,73.2,68.4,30.06,SSE,153,0.0,0.0,85,0.00,,OVC019,0.00,VWS V13.01,2013-11-06 22:29:00,
2013-11-06 16:30:00,73.1,68.3,30.06,SSE,153,0.0,0.0,85,0.00,,SCT200,0.00,VWS V13.01,2013-11-06 22:30:00,
2013-11-06 16:34:00,73.1,68.3,30.06,SSE,153,0.0,0.0,85,0.00,,OVC019,0.00,VWS V13.01,2013-11-06 22:34:00,
2013-11-06 16:39:00,73.1,68.3,30.06,SSE,153,0.0,0.0,85,0.00,,OVC019,0.00,VWS V13.01,2013-11-06 22:39:00,
2013-11-06 16:44:00,73.0,68.2,30.06,SSE,153,0.0,0.0,85,0.00,,OVC019,0.00,VWS V13.01,2013-11-06 22:44:00,
2013-11-06 16:45:00,73.0,68.2,30.06,SSE,153,0.0,0.0,85,0.00,,SCT200,0.00,VWS V13.01,2013-11-06 22:45:00,
2013-11-06 16:49:00,72.9,68.1,30.06,SSE,153,0.0,0.0,85,0.00,,OVC019,0.00,VWS V13.01,2013-11-06 22:49:00,
2013-11-06 16:54:00,72.8,68.0,30.06,SSE,153,0.0,0.0,85,0.00,,OVC019,0.00,VWS V13.01,2013-11-06 22:54:00,
2013-11-06 16:59:00,72.7,67.9,30.06,SSE,153,0.0,0.0,85,0.00,,OVC019,0.00,VWS V13.01,2013-11-06 22:59:00,
2013-11-06 17:00:00,72.6,68.2,30.06,SSE,153,0.0,0.0,86,0.00,,SCT200,0.00,VWS V13.01,2013-11-06 23:00:00,
2013-11-06 17:04:00,72.6,68.2,30.06,SSE,153,0.0,0.0,86,0.00,,OVC021,0.00,VWS V13.01,2013-11-06 23:04:00,
2013-11-06 17:09:00,72.5,68.1,30.06,SSE,153,0.0,0.0,86,0.00,,OVC021,0.00,VWS V13.01,2013-11-06 23:09:00,
2013-11-06 17:14:00,72.4,68.0,30.06,SSE,153,0.0,0.0,86,0.00,,OVC021,0.00,VWS V13.01,2013-11-06 23:14:00,
2013-11-06 17:15:00,72.4,68.0,30.06,SSE,153,0.0,0.0,86,0.00,,SCT200,0.00,VWS V13.01,2013-11-06 23:15:00,
2013-11-06 17:19:00,72.3,67.9,30.06,SSE,153,0.0,0.0,86,0.00,,OVC021,0.00,VWS V13.01,2013-11-06 23:19:00,
2013-11-06 17:24:00,72.2,67.8,30.06,SSE,153,0.0,0.0,86,0.00,,OVC021,0.00,VWS V13.01,2013-11-06 23:24:00,
2013-11-06 17:29:00,72.1,68.0,30.06,SSE,153,0.0,0.0,87,0.00,,OVC021,0.00,VWS V13.01,2013-11-06 23:29:00,
2013-11-06 17:30:00,72.1,68.0,30.06,SSE,153,0.0,0.0,87,0.00,,SCT200,0.00,VWS V13.01,2013-11-06 23:30:00,
2013-11-06 17:34:00,72.0,67.9,30.07,SSE,153,0.0,0.0,87,0.00,,OVC021,0.00,VWS V13.01,2013-11-06 23:34:00,
2013-11-06 17:39:00,71.9,68.2,30.06,SSE,153,0.0,0.0,88,0.00,,OVC021,0.00,VWS V13.01,2013-11-06 23:39:00,
2013-11-06 17:45:00,71.8,68.1,30.06,SSE,153,0.0,0.0,88,0.00,,OVC021,0.00,VWS V13.01,2013-11-06 23:45:00,
2013-11-06 17:50:00,71.8,68.1,30.07,SSE,153,0.0,0.0,88,0.00,,OVC021,0.00,VWS V13.01,2013-11-06 23:50:00,
2013-11-06 17:55:00,71.7,68.0,30.07,SSE,153,0.0,0.0,88,0.00,,OVC021,0.00,VWS V13.01,2013-11-06 23:55:00,
2013-11-06 18:00:00,71.6,67.9,30.07,SSE,153,0.0,0.0,88,0.00,,OVC021,0.00,VWS V13.01,2013-11-07 00:00:00,
2013-11-06 18:05:00,71.6,67.9,30.07,SSE,153,0.0,1.0,88,0.00,,BKN060,0.00,VWS V13.01,2013-11-07 00:05:00,
2013-11-06 18:10:00,71.5,67.8,30.07,SSE,153,0.0,1.0,88,0.00,,BKN060,0.00,VWS V13.01,2013-11-07 00:10:00,
2013-11-06 18:15:00,71.4,68.0,30.07,SSE,153,0.0,1.0,89,0.00,,BKN060,0.00,VWS V13.01,2013-11-07 00:15:00,
2013-11-06 18:20:00,71.3,67.9,30.07,SSE,153,0.0,0.0,89,0.00,,BKN060,0.00,VWS V13.01,2013-11-07 00:20:00,
2013-11-06 18:25:00,71.3,67.9,30.07,SSE,153,0.0,0.0,89,0.00,,BKN060,0.00,VWS V13.01,2013-11-07 00:25:00,
2013-11-06 18:30:00,71.3,67.9,30.07,SSE,153,0.0,0.0,89,0.00,,BKN060,0.00,VWS V13.01,2013-11-07 00:30:00,
2013-11-06 18:35:00,71.2,67.8,30.07,SSE,153,0.0,1.0,89,0.00,,BKN060,0.00,VWS V13.01,2013-11-07 00:35:00,
2013-11-06 18:40:00,71.1,67.7,30.07,SSE,153,0.0,1.0,89,0.00,,BKN060,0.00,VWS V13.01,2013-11-07 00:40:00,
2013-11-06 18:45:00,71.0,67.6,30.07,SSE,153,0.0,1.0,89,0.00,,BKN060,0.00,VWS V13.01,2013-11-07 00:45:00,
2013-11-06 18:50:00,70.8,67.7,30.07,SSE,153,0.0,0.0,90,0.00,,BKN060,0.00,VWS V13.01,2013-11-07 00:50:00,
2013-11-06 18:55:00,70.7,67.6,30.06,SSE,153,0.0,0.0,90,0.00,,BKN060,0.00,VWS V13.01,2013-11-07 00:55:00,
2013-11-06 19:00:00,70.6,67.5,30.07,SSE,153,0.0,1.0,90,0.00,,BKN060,0.00,VWS V13.01,2013-11-07 01:00:00,
2013-11-06 19:05:00,70.5,67.4,30.06,SSE,153,0.0,0.0,90,0.00,,BKN060,0.00,VWS V13.01,2013-11-07 01:05:00,
2013-11-06 19:10:00,70.3,67.2,30.06,SSE,153,0.0,0.0,90,0.00,,BKN060,0.00,VWS V13.01,2013-11-07 01:10:00,
2013-11-06 19:15:00,70.2,67.1,30.07,SSE,153,0.0,1.0,90,0.00,,BKN060,0.00,VWS V13.01,2013-11-07 01:15:00,
2013-11-06 19:20:00,70.1,67.0,30.06,SSE,153,0.0,0.0,90,0.00,,BKN060,0.00,VWS V13.01,2013-11-07 01:20:00,
2013-11-06 19:25:00,70.0,66.9,30.07,SSE,153,0.0,1.0,90,0.00,,BKN060,0.00,VWS V13.01,2013-11-07 01:25:00,
2013-11-06 19:30:00,69.9,67.2,30.07,SSE,153,0.0,3.0,91,0.00,,BKN060,0.00,VWS V13.01,2013-11-07 01:30:00,
2013-11-06 19:35:00,69.9,67.2,30.06,SSE,153,0.0,1.0,91,0.00,,BKN060,0.00,VWS V13.01,2013-11-07 01:35:00,
2013-11-06 19:40:00,69.8,67.1,30.07,SSE,153,0.0,3.0,91,0.00,,BKN060,0.00,VWS V13.01,2013-11-07 01:40:00,
2013-11-06 19:45:00,69.7,67.0,30.06,SSE,153,0.0,3.0,91,0.00,,SCT200,0.00,VWS V13.01,2013-11-07 01:45:00,
2013-11-06 19:46:00,69.7,67.0,30.06,SSE,153,0.0,3.0,91,0.00,,BKN060,0.00,VWS V13.01,2013-11-07 01:46:00,
2013-11-06 19:51:00,69.7,66.6,30.06,SSE,153,0.0,0.0,90,0.00,,BKN060,0.00,VWS V13.01,2013-11-07 01:51:00,
2013-11-06 19:56:00,69.5,66.8,30.06,SSE,153,0.0,1.0,91,0.00,,BKN060,0.00,VWS V13.01,2013-11-07 01:56:00,
2013-11-06 20:00:00,69.5,66.8,30.06,SSE,153,0.0,1.0,91,0.00,,SCT200,0.00,VWS V13.01,2013-11-07 02:00:00,
2013-11-06 20:01:00,69.4,66.7,30.06,SSE,153,0.0,1.0,91,0.00,,BKN160,0.00,VWS V13.01,2013-11-07 02:01:00,
2013-11-06 20:06:00,69.4,66.7,30.07,SSE,153,0.0,0.0,91,0.00,,BKN160,0.00,VWS V13.01,2013-11-07 02:06:00,
2013-11-06 20:11:00,69.3,66.6,30.06,SSE,153,0.0,2.0,91,0.00,,BKN160,0.00,VWS V13.01,2013-11-07 02:11:00,
2013-11-06 20:15:00,69.2,66.5,30.06,SSE,153,0.0,2.0,91,0.00,,SCT200,0.00,VWS V13.01,2013-11-07 02:15:00,
2013-11-06 20:16:00,69.2,66.5,30.06,SSE,153,0.0,2.0,91,0.00,,BKN160,0.00,VWS V13.01,2013-11-07 02:16:00,
2013-11-06 20:21:00,69.1,66.4,30.06,SSE,153,0.0,0.0,91,0.00,,BKN160,0.00,VWS V13.01,2013-11-07 02:21:00,
2013-11-06 20:26:00,69.0,66.3,30.07,SSE,153,0.0,0.0,91,0.00,,BKN160,0.00,VWS V13.01,2013-11-07 02:26:00,
2013-11-06 20:30:00,68.9,66.2,30.06,SSE,153,0.0,0.0,91,0.00,,SCT200,0.00,VWS V13.01,2013-11-07 02:30:00,
2013-11-06 20:31:00,68.9,66.2,30.06,SSE,153,0.0,0.0,91,0.00,,BKN160,0.00,VWS V13.01,2013-11-07 02:31:00,
2013-11-06 20:36:00,68.8,66.4,30.06,SSE,153,0.0,0.0,92,0.00,,BKN160,0.00,VWS V13.01,2013-11-07 02:36:00,
2013-11-06 20:41:00,68.7,66.3,30.06,SSE,153,0.0,0.0,92,0.00,,BKN160,0.00,VWS V13.01,2013-11-07 02:41:00,
2013-11-06 20:45:00,68.6,66.2,30.06,SSE,153,0.0,0.0,92,0.00,,SCT200,0.00,VWS V13.01,2013-11-07 02:45:00,
2013-11-06 20:46:00,68.6,66.2,30.06,SSE,153,0.0,0.0,92,0.00,,BKN160,0.00,VWS V13.01,2013-11-07 02:46:00,
2013-11-06 20:51:00,68.6,66.2,30.06,SSE,153,0.0,0.0,92,0.00,,BKN160,0.00,VWS V13.01,2013-11-07 02:51:00,
2013-11-06 20:56:00,68.6,66.2,30.06,SSE,153,0.0,0.0,92,0.00,,BKN160,0.00,VWS V13.01,2013-11-07 02:56:00,
2013-11-06 21:00:00,68.6,66.2,30.06,SSE,153,0.0,0.0,92,0.00,,SCT200,0.00,VWS V13.01,2013-11-07 03:00:00,
2013-11-06 21:01:00,68.6,66.2,30.06,SSE,153,0.0,0.0,92,0.00,,BKN200,0.00,VWS V13.01,2013-11-07 03:01:00,
2013-11-06 21:06:00,68.6,66.2,30.07,SSE,153,0.0,1.0,92,0.00,,BKN200,0.00,VWS V13.01,2013-11-07 03:06:00,
2013-11-06 21:11:00,68.6,66.2,30.06,SSE,153,0.0,1.0,92,0.00,,BKN200,0.00,VWS V13.01,2013-11-07 03:11:00,
2013-11-06 21:15:00,68.6,66.2,30.06,SSE,153,0.0,1.0,92,0.00,,SCT200,0.00,VWS V13.01,2013-11-07 03:15:00,
2013-11-06 21:16:00,68.6,66.2,30.06,SSE,153,0.0,0.0,92,0.00,,BKN200,0.00,VWS V13.01,2013-11-07 03:16:00,
2013-11-06 21:21:00,68.6,66.2,30.06,SSE,153,0.0,0.0,92,0.00,,BKN200,0.00,VWS V13.01,2013-11-07 03:21:00,
2013-11-06 21:26:00,68.6,66.2,30.06,SSE,153,0.0,0.0,92,0.00,,BKN200,0.00,VWS V13.01,2013-11-07 03:26:00,
2013-11-06 21:30:00,68.5,66.1,30.06,SSE,153,0.0,0.0,92,0.00,,SCT200,0.00,VWS V13.01,2013-11-07 03:30:00,
2013-11-06 21:31:00,68.6,66.2,30.06,SSE,153,0.0,0.0,92,0.00,,BKN200,0.00,VWS V13.01,2013-11-07 03:31:00,
2013-11-06 21:36:00,68.5,66.1,30.06,SSE,153,0.0,0.0,92,0.00,,BKN200,0.00,VWS V13.01,2013-11-07 03:36:00,
2013-11-06 21:41:00,68.5,66.1,30.06,SSE,153,0.0,0.0,92,0.00,,BKN200,0.00,VWS V13.01,2013-11-07 03:41:00,
2013-11-06 21:45:00,68.5,66.1,30.06,SSE,153,0.0,0.0,92,0.00,,SCT200,0.00,VWS V13.01,2013-11-07 03:45:00,
2013-11-06 21:46:00,68.4,66.0,30.06,SSE,153,0.0,0.0,92,0.00,,BKN200,0.00,VWS V13.01,2013-11-07 03:46:00,
2013-11-06 21:51:00,68.4,66.0,30.06,SSE,153,0.0,0.0,92,0.00,,BKN200,0.00,VWS V13.01,2013-11-07 03:51:00,
2013-11-06 21:56:00,68.3,66.2,30.06,SSE,153,0.0,0.0,93,0.00,,BKN200,0.00,VWS V13.01,2013-11-07 03:56:00,
2013-11-06 22:00:00,68.3,66.2,30.06,SSE,153,0.0,0.0,93,0.00,,SCT200,0.00,VWS V13.01,2013-11-07 04:00:00,
2013-11-06 22:01:00,68.3,66.2,30.06,SSE,153,0.0,0.0,93,0.00,,SCT200,0.00,VWS V13.01,2013-11-07 04:01:00,
2013-11-06 22:06:00,68.3,66.2,30.06,SSE,153,0.0,0.0,93,0.00,,SCT200,0.00,VWS V13.01,2013-11-07 04:06:00,
2013-11-06 22:12:00,68.2,66.1,30.06,SSE,153,0.0,0.0,93,0.00,,SCT200,0.00,VWS V13.01,2013-11-07 04:12:00,
2013-11-06 22:15:00,68.2,66.1,30.06,SSE,153,0.0,0.0,93,0.00,,SCT200,0.00,VWS V13.01,2013-11-07 04:15:00,
2013-11-06 22:17:00,68.2,66.1,30.06,SSE,153,0.0,0.0,93,0.00,,SCT200,0.00,VWS V13.01,2013-11-07 04:17:00,
2013-11-06 22:22:00,68.1,66.0,30.06,SSE,153,0.0,0.0,93,0.00,,SCT200,0.00,VWS V13.01,2013-11-07 04:22:00,
2013-11-06 22:27:00,68.2,66.1,30.06,SSE,153,0.0,0.0,93,0.00,,SCT200,0.00,VWS V13.01,2013-11-07 04:27:00,
2013-11-06 22:30:00,68.2,66.1,30.06,SSE,153,0.0,0.0,93,0.00,,SCT200,0.00,VWS V13.01,2013-11-07 04:30:00,
2013-11-06 22:32:00,68.1,66.3,30.06,SSE,153,0.0,0.0,94,0.00,,SCT200,0.00,VWS V13.01,2013-11-07 04:32:00,
2013-11-06 22:37:00,68.2,66.4,30.06,SSE,153,0.0,0.0,94,0.00,,SCT200,0.00,VWS V13.01,2013-11-07 04:37:00,
2013-11-06 22:42:00,68.2,66.4,30.06,SSE,153,0.0,0.0,94,0.00,,SCT200,0.00,VWS V13.01,2013-11-07 04:42:00,
2013-11-06 22:45:00,68.4,66.9,30.05,SSE,153,0.0,0.0,95,0.00,,FEW040,0.00,VWS V13.01,2013-11-07 04:45:00,
2013-11-06 22:47:00,68.2,66.4,30.06,SSE,153,0.0,0.0,94,0.00,,SCT200,0.00,VWS V13.01,2013-11-07 04:47:00,
2013-11-06 22:52:00,68.2,66.4,30.06,SSE,153,0.0,0.0,94,0.00,,SCT200,0.00,VWS V13.01,2013-11-07 04:52:00,
2013-11-06 22:57:00,68.2,66.4,30.06,SSE,153,0.0,0.0,94,0.00,,SCT200,0.00,VWS V13.01,2013-11-07 04:57:00,
2013-11-06 23:00:00,68.2,66.4,30.05,SSE,153,0.0,0.0,94,0.00,,SCT200,0.00,VWS V13.01,2013-11-07 05:00:00,
2013-11-06 23:01:00,68.2,66.4,30.05,SSE,153,0.0,0.0,94,0.00,,BKN100,0.00,VWS V13.01,2013-11-07 05:01:00,
2013-11-06 23:02:00,68.2,66.4,30.05,SSE,153,0.0,0.0,94,0.00,,BKN100,0.00,VWS V13.01,2013-11-07 05:02:00,
2013-11-06 23:06:00,68.2,66.4,30.05,SSE,153,0.0,0.0,94,0.00,,BKN100,0.00,VWS V13.01,2013-11-07 05:06:00,
2013-11-06 23:11:00,68.2,66.4,30.05,SSE,153,0.0,0.0,94,0.00,,BKN100,0.00,VWS V13.01,2013-11-07 05:11:00,
2013-11-06 23:15:00,68.2,66.4,30.05,SSE,153,0.0,0.0,94,0.00,,SCT200,0.00,VWS V13.01,2013-11-07 05:15:00,
2013-11-06 23:16:00,68.2,66.4,30.05,SSE,153,0.0,0.0,94,0.00,,BKN100,0.00,VWS V13.01,2013-11-07 05:16:00,
2013-11-06 23:21:00,68.3,66.5,30.05,SSE,153,0.0,0.0,94,0.00,,BKN100,0.00,VWS V13.01,2013-11-07 05:21:00,
2013-11-06 23:26:00,68.3,66.8,30.05,SSE,153,0.0,0.0,95,0.00,,BKN100,0.00,VWS V13.01,2013-11-07 05:26:00,
2013-11-06 23:30:00,68.3,66.8,30.04,SSE,153,0.0,0.0,95,0.00,,FEW040,0.00,VWS V13.01,2013-11-07 05:30:00,
2013-11-06 23:31:00,68.3,66.8,30.05,SSE,153,0.0,0.0,95,0.00,,BKN100,0.00,VWS V13.01,2013-11-07 05:31:00,
2013-11-06 23:36:00,68.4,66.9,30.05,SSE,153,0.0,0.0,95,0.00,,BKN100,0.00,VWS V13.01,2013-11-07 05:36:00,
2013-11-06 23:41:00,68.4,66.9,30.05,SSE,153,0.0,0.0,95,0.00,,BKN100,0.00,VWS V13.01,2013-11-07 05:41:00,
2013-11-06 23:45:00,68.4,66.9,30.03,SSE,153,0.0,0.0,95,0.00,,FEW040,0.00,VWS V13.01,2013-11-07 05:45:00,
2013-11-06 23:46:00,68.4,66.9,30.05,SSE,153,0.0,0.0,95,0.00,,BKN100,0.00,VWS V13.01,2013-11-07 05:46:00,
2013-11-06 23:51:00,68.4,66.9,30.05,SSE,153,0.0,0.0,95,0.00,,BKN100,0.00,VWS V13.01,2013-11-07 05:51:00,
2013-11-06 23:56:00,68.4,66.9,30.04,SSE,153,0.0,0.0,95,0.00,,BKN100,0.00,VWS V13.01,2013-11-07 05:56:00,